Regional Weather Roundup
Issued by NWS

Home | Current Version | Previous Version | Graphics & Text | Print | Product List | Glossary On
Versions: 1 2 3 4 5 6 7 8 9 10 11 12 13 14 15 16 17 18 19 20 21 22 23 24 25 26 27
000
ASUS45 KSLC 282010
RWRUT

UTAH REGIONAL WEATHER ROUNDUP
NATIONAL WEATHER SERVICE SALT LAKE CITY UT
200 PM MDT SAT MAY 28 2016

UTZ001>011-023>025-282100-

NORTHERN UTAH

CITY           SKY/WX    TMP DP  RH WIND       PRES   REMARKS
BRIGHAM CITY     N/A     67  33  28 W8        30.05F
HILL AFB       SUNNY     66  40  39 N7        30.05S
LOGAN          SUNNY     65  37  35 CALM      30.06S
OGDEN          SUNNY     68  39  34 N9        30.04F
PROVO AIRPORT  MOSUNNY   72  37  28 SW6       30.02F
SALT LAKE CITY MOSUNNY   72  44  36 N14       30.02F
VERNAL         LGT RAIN  61  36  39 NW16G24   30.07R
WENDOVER       SUNNY     68  36  30 E7        30.04F
HEBER CITY     MOSUNNY   70  30  23 SW10      30.04S
WEST JORDAN    MOSUNNY   68  45  42 N9G16     30.04F

$$

UTZ012>022-026-027-282100-

SOUTHERN/CENTRAL UTAH

CITY           SKY/WX    TMP DP  RH WIND       PRES   REMARKS
BLANDING       PTSUNNY   73  31  21 N10G21    30.17S
BRYCE CANYON   CLOUDY    59  29  31 W9        30.17S
CEDAR CITY     PTSUNNY   73  26  17 VRB7      30.02F
DELTA          MOSUNNY   73  32  21 W5        30.01S
HANKSVILLE     MOSUNNY   77  32  19 CALM      30.01F
MILFORD        MOSUNNY   79  31  17 VRB6      29.99F
MOAB/CYNLANDS  SUNNY     78  33  19 SW10      29.99F
PRICE          PTSUNNY   70  34  26 SW12G23   30.06F
ST GEORGE      PTCLDY    84  34  16 NW8       29.90F
KANAB          MOSUNNY   81  28  15 CALM      30.03F

$$

REGIONAL REPORTS     COLORADO/ARIZONA

CITY           SKY/WX    TMP DP  RH WIND       PRES   REMARKS
CRAIG, CO      CLOUDY    64  35  34 W10       30.08F
GRAND JUNCTION SUNNY     71  32  23 VRB5      30.03F
RIFLE          CLOUDY    70  35  27 NW13      30.06S
MONTROSE       SUNNY     69  29  22 SW15      30.10F
CORTEZ         MOSUNNY   72  28  19 VRB6      30.08F
PAGE, AZ       SUNNY     81  25  12 NW9       29.97F
GRAND CANYON   CLOUDY    70  26  19 NE8       30.11S
KINGMAN        MOSUNNY   84  28  13 SW15      29.92F
FLAGSTAFF      MOSUNNY   66  26  22 VRB7      30.12F

$$

REGIONAL REPORTS    NEVADA/IDAHO/WYOMING

CITY           SKY/WX    TMP DP  RH WIND       PRES   REMARKS
LAS VEGAS, NV  PTSUNNY   88  30  12 E10G20    29.80F
ELY            CLOUDY    62  37  39 SE17G28   30.07R
ELKO           SUNNY     68  32  26 S7        30.04F
POCATELLO, ID  SUNNY     64  28  25 W14       30.09S
BURLEY         SUNNY     63  32  31 W7        30.07F
EVANSTON, WY   MOSUNNY   61  34  36 W22G29    30.11S
ROCK SPRINGS   PTSUNNY   63  30  28 W21G31    30.08F
KEMMERER         N/A     59  34  38 W14G28    30.12S

$$




USA.gov is the U.S. government's official web portal to all federal, state and local government web resources and services.